Preview of NWS' New Version of Forecast
This preview is not operational and should not be used for support decisions.

Regional Weather Roundup (RWR)

Issued by National Weather Service (NWS)

                            
000
ASUS43 KTOP 221308
RWRKS 

WEATHER ROUNDUP FOR KANSAS
NATIONAL WEATHER SERVICE GOODLAND KS
800 AM CDT WED MAY 22 2019

NOTE:  "FAIR" INDICATES FEW OR NO CLOUDS BELOW 12,000 FEET WITH NO
SIGNIFICANT WEATHER AND/OR OBSTRUCTIONS TO VISIBILITY.

KSZ001>006-013>018-027>032-041>047-221400-
NORTHWEST KANSAS
  
CITY           SKY/WX    TMP DP  RH WIND       PRES   REMARKS
GOODLAND       MOSUNNY   40  34  79 W15       29.67R WCI  32          
HAYS           SUNNY     44  38  79 W14       29.67R                  
HILL CITY      SUNNY     44  37  76 W14G20    29.65R                  
RUSSELL        SUNNY     44  38  79 W12       29.65R                  
$$

KSZ061>065-074>080-084>089-221400-
SOUTHWEST KANSAS
  
CITY           SKY/WX    TMP DP  RH WIND       PRES   REMARKS
DODGE CITY     SUNNY     45  36  70 W9        29.69R                  
ELKHART        SUNNY     46  43  87 SW3       29.69S                  
GARDEN CITY    SUNNY     39  37  92 W8        29.69R                  
GREAT BEND     MOSUNNY   46  40  79 W12       29.69R                  
LIBERAL        SUNNY     45  41  86 CALM      29.72R                  
PRATT          SUNNY     47  43  85 W7        29.71S                  
$$

KSZ066>073-081>083-090>101-221400-
SOUTHEAST KANSAS
  
CITY           SKY/WX    TMP DP  RH WIND       PRES   REMARKS
CHANUTE        SUNNY     58  50  75 SW6       29.72R                  
COFFEYVILLE    SUNNY     62  54  74 S7        29.71R                  
HUTCHINSON     SUNNY     49  42  77 W10       29.71R                  
MEDICINE LODGE   N/A     49  43  80 N5        29.70R                  
NEWTON         SUNNY     49  42  77 SW8       29.72R                  
PARSONS        SUNNY     60  54  80 CALM      29.73R                  
WICHITA INTL   MOSUNNY   51  43  74 W6        29.71R                  
WICHITA JABRA  SUNNY     50  42  74 W9        29.70R                  
WICHITA MCCONL SUNNY     51  42  70 W6        29.71R                  
WINFIELD       SUNNY     54  46  74 NW5       29.72R                  
$$

KSZ007>012-019>026-033>040-048>060-102>105-221400-
NORTHEAST KANSAS
  
CITY           SKY/WX    TMP DP  RH WIND       PRES   REMARKS
CONCORDIA      SUNNY     47  40  76 SW13G25   29.64R                  
EMPORIA        SUNNY     52  45  77 SW9       29.69R                  
LAWRENCE       SUNNY     57  47  69 W7        29.68R                  
MANHATTAN      MOSUNNY   51  42  71 SW9       29.67R                  
MARYSVILLE     SUNNY     46  43  87 SW12      29.63R                  
OLATHE IND     SUNNY     57  49  74 SW10      29.70R                  
OLATHE EXE     SUNNY     57  50  77 SW10      29.69R                  
SALINA         PTSUNNY   49  41  74 W10       29.69R                  
TOPEKA BILLARD SUNNY     54  44  69 SW8       29.68R                  
TOPEKA FORBES  SUNNY     53  45  74 SW12      29.68R                  
$$